Flag for Dominican Republic Weather past 2 weeks in Santiago de los Caballeros, Dominican Republic

Now
68 °F

Passing clouds.


Feels Like: 68 °F
Forecast: 67 / 86 °F
Wind: 3 mph from North

Location: Santiago

Current Time: Apr 1, 2015 at 6:55:09 AM

Latest Report: Apr 1, 2015 at 6:00 AM


Visibility: N/A

Pressure: 30.01 "Hg

Humidity: 100%

Dew point: 68 °F

Location of Santiago de los CaballerosLocation

Historic Weather in Santiago de los Caballeros — Graph

°F

Santiago de los Caballeros temperature yesterday

Maximum temperature yesterday: 82 °F (at 3:00 PM)
Minimum temperature yesterday: 68 °F (at 8:00 PM)
Average temperature yesterday: 73 °F

Past Weeks' High & Low Weather Summary

 TemperatureHumidityPressure
High90 °F (Mar 28, 4:00 PM)100% (Mar 17, 5:00 AM)30.12 "Hg (Mar 17, 5:00 AM)
Low63 °F (Mar 17, 7:00 AM)40% (Mar 29, 5:00 PM)29.86 "Hg (Mar 20, 8:00 AM)
Average77 °F77%30.02 "Hg
* Reported Mar 17 5:00 AM — Apr 1 5:00 AM, Santiago de los Caballeros, Weather by CustomWeather, © 2015

Note: Actual official high and low records may vary slightly from our data, if they occured in-between our weather recording intervals... More about our weather records

Advertising

Santiago de los Caballeros weather history for previous 24 hours

 ConditionsComfort  
Time TempWeatherWind HumidityBarometerVisibility
5:00 AM
Wed, Apr 1
68 °FPassing clouds.3 mph100%29.98 "HgN/A
4:00 AM68 °FPartly cloudy.No wind100%29.98 "HgN/A
3:00 AM68 °FPassing clouds.5 mph100%30.01 "HgN/A
2:00 AM68 °FPassing clouds.No wind100%30.04 "HgN/A
12:00 AM68 °FPassing clouds.No wind100%30.07 "HgN/A
11:00 PM
Tue, Mar 31
68 °FPassing clouds.5 mph100%30.07 "HgN/A
10:00 PM68 °FPassing clouds.6 mph100%30.07 "HgN/A
9:00 PM68 °FLight rain. Passing clouds.3 mph100%30.07 "Hg5 mi
8:00 PM68 °FLight rain. Passing clouds.3 mph100%30.04 "Hg5 mi
7:00 PM70 °FLight rain. Mostly cloudy.9 mph94%30.01 "Hg4 mi
6:00 PM73 °FLight rain. Mostly cloudy.7 mph83%29.98 "Hg4 mi
5:00 PM75 °FMild.14 mph74%29.98 "HgN/A
4:00 PM79 °FRain. Partly sunny.12 mph65%29.98 "Hg4 mi
3:00 PM82 °FPartly sunny.5 mph58%29.98 "HgN/A
2:00 PM81 °FPartly sunny.7 mph62%30.01 "HgN/A
1:00 PM81 °FPartly sunny.14 mph58%30.04 "HgN/A
12:00 PM79 °FPartly sunny.9 mph61%30.04 "HgN/A
11:00 AM75 °FPartly sunny.5 mph78%30.07 "HgN/A
10:00 AM72 °FPartly sunny.5 mph88%30.07 "HgN/A
9:00 AM72 °FScattered showers. Partly sunny.14 mph88%30.07 "Hg4 mi
8:00 AM72 °FPartly sunny.No wind88%30.04 "HgN/A
7:00 AM70 °FPartly sunny.No wind100%29.98 "HgN/A
6:00 AM70 °FPassing clouds.No wind100%29.98 "HgN/A
Weather by CustomWeather, © 2015

See weather overviewHow to use our weather pages